Location: New Greens
(51.7702°N, 0.3379°W)
Time: 19:52:35
(UTC+00:00)

Envisat - Pass Details

Date: 29 January 2019
Orbit: 764 x 766 km, 98.2° (Epoch: 21 February)

Event Time Altitude Azimuth Distance (km) Brightness Sun altitude
Rises 06:09:42 0° 28° (NNE) 3,245 6.5 -14.8°
Reaches altitude 10° 06:13:13 10° 54° (NE) 2,312 6.1 -14.2°
Maximum altitude 06:15:51 14° 85° (E) 2,033 6.4 -13.8°
Drops below altitude 10° 06:18:30 10° 117° (ESE) 2,302 6.8 -13.4°
Sets 06:21:57 0° 142° (SE) 3,222 7.1 -12.9°
